Accueil
METAR-TAF:

METAR-TAF

Aéroports :

Aéroport de Toussus-le-Noble

Toussus-le-Noble, France

latitude: 48-46N, longitude: 002-06E, altitude: 164 m

Observation

Le bulletin a été fait il y a 33 minutes, à 22:30 UTC
Vent 4 kt de nord
Température 14°C
Humidité 77%
Pression 1023 hPa
Visibilité 10 km ou plus
pas de nuages en-dessous de 1500 mètres et pas de cumulonimbus.

METAR: LFPN 172230Z AUTO 35004KT CAVOK 14/10 Q1023

Heure: 01:03 (23:03 UTC)

Prévision

Le bulletin a été fait il y a 6 heures et 3 minutes, à 17:00 UTC
Prévision valable du 17 à 18 UTC au 18 à 03 UTC
Vent 7 kt de nord-ouest
Visibilité 10 km ou plus
pas de nuages en-dessous de 1500 mètres et pas de cumulonimbus.

TAF: LFPN 171700Z 1718/1803 32007KT CAVOK

Observations et prévisions météorologiques de plus de 4000 aéroports (messages METAR et TAF).

Les stations disponibles sont représentées par des disques jaunes et rouges sur la carte.

Passer la souris dessus pour voir le nom de la station.

Cliquer dessus pour voir les observations et prévisions météorologiques.

Pour changer de carte: cliquez sur les boutons verts avec une croix noire pour zoomer, sur le bouton vert avec un tiret pour effectuer un zoom arrière, ou sur les flèches vertes pour les cartes adjacentes.


METAR-TAF: